Weather History for Hugo, OK

Change the Weather History Date:

Monday, December 31, 2012

  Actual Average Record
Temperature  
Mean Temperature 37 °F -  
Max Temperature 39 °F 49 °F 57 °F (2013)
Min Temperature 35 °F 29 °F 26 °F (2013)
Degree Days  
Heating Degree Days 28    
Moisture  
Dew Point 35 °F    
Average Humidity 90    
Maximum Humidity 99    
Minimum Humidity 67    
Precipitation  
Precipitation 0.00 in - - ()
Sea Level Pressure  
Sea Level Pressure 30.08 in    
Wind  
Wind Speed 5 mph (East)    
Max Wind Speed 13 mph    
Max Gust Speed 20 mph    
Visibility 6 miles    
Events Fog , Rain    
Averages and records for this station are not official NWS values.
T = Trace of Precipitation, MM = Missing Value Source: NWS Daily Summary

Daily Weather History Graph

Daily Weather History Graph

Search for Another Location

Airport:

Trip Planner

Search our weather history database for the weather conditions in past years. The results will help you decide how hot, cold, wet, or windy it might be!

Date:

Astronomy

Dec. 31, 2012 Rise Set
Actual Time 7:27 AM CST 5:23 PM CST
Civil Twilight 6:59 AM CST 5:51 PM CST
Nautical Twilight 6:28 AM CST 6:22 PM CST
Astronomical Twilight 5:58 AM CST 6:52 PM CST
Moon 8:45 PM CST (12/31) 9:18 AM CST (12/31)
Length of Visible Light 10h 51m
Length of Day
9h 55m
Waning Gibbous, 90% of the Moon is Illuminated
Dec 31
Waning Gibbous
Jan 4
Last Quarter
Jan 11
New
Jan 18
First Quarter
Jan 26
Full

Hourly Weather History & Observations

Time (CST) Temp. Windchill Dew Point Humidity Pressure Visibility Wind Dir Wind Speed Gust Speed Precip Events Conditions
12:15 AM 38.3 °F 34.8 °F 29.3 °F 70% 30.25 in 10.0 mi SSE 4.6 mph - N/A   Overcast
12:35 AM 38.5 °F 34.1 °F 29.1 °F 69% 30.24 in 10.0 mi SE 5.8 mph - N/A   Overcast
12:55 AM 38.5 °F 36.1 °F 28.9 °F 69% 30.23 in 10.0 mi SE 3.5 mph - N/A   Overcast
1:15 AM 38.5 °F 34.1 °F 29.3 °F 70% 30.22 in 10.0 mi SE 5.8 mph - N/A   Overcast
1:35 AM 38.7 °F 35.2 °F 28.8 °F 68% 30.23 in 10.0 mi SE 4.6 mph - N/A   Overcast
1:55 AM 38.8 °F 35.4 °F 28.9 °F 68% 30.22 in 10.0 mi SE 4.6 mph - N/A   Overcast
2:15 AM 38.8 °F 34.6 °F 28.9 °F 68% 30.21 in 10.0 mi SE 5.8 mph - N/A   Overcast
2:35 AM 39.2 °F 37.0 °F 28.9 °F 67% 30.22 in 10.0 mi SE 3.5 mph - N/A   Overcast
2:55 AM 38.8 °F 35.4 °F 29.5 °F 69% 30.21 in 10.0 mi ESE 4.6 mph - N/A   Overcast
3:15 AM 38.3 °F 33.9 °F 30.0 °F 72% 30.20 in 10.0 mi ESE 5.8 mph - N/A   Overcast
3:35 AM 38.3 °F 32.5 °F 29.7 °F 71% 30.19 in 10.0 mi ESE 8.1 mph - N/A   Overcast
3:55 AM 38.3 °F 33.9 °F 30.0 °F 72% 30.19 in 10.0 mi ESE 5.8 mph - N/A Rain Light Rain
4:15 AM 38.3 °F 33.9 °F 30.2 °F 73% 30.18 in 10.0 mi ESE 5.8 mph - N/A Rain Light Rain
4:35 AM 37.8 °F 33.3 °F 31.1 °F 77% 30.17 in 10.0 mi ESE 5.8 mph - N/A Rain Light Rain
4:55 AM 37.6 °F 33.1 °F 31.1 °F 77% 30.17 in 10.0 mi ESE 5.8 mph - N/A Rain Light Rain
5:15 AM 37.0 °F 32.4 °F 32.0 °F 82% 30.16 in 10.0 mi SE 5.8 mph - N/A Rain Light Rain
5:35 AM 36.7 °F 30.5 °F 32.2 °F 84% 30.14 in 10.0 mi ESE 8.1 mph - N/A Rain Light Rain
5:55 AM 36.1 °F 29.9 °F 32.7 °F 87% 30.12 in 10.0 mi ESE 8.1 mph - N/A Rain Light Rain
6:15 AM 36.0 °F 28.5 °F 32.9 °F 89% 30.10 in 10.0 mi ESE 10.4 mph - N/A Rain Light Rain
6:55 AM 36.1 °F 30.6 °F 32.9 °F 88% 30.10 in 10.0 mi ESE 6.9 mph - N/A   Drizzle
7:15 AM 36.1 °F 29.3 °F 33.1 °F 89% 30.10 in 10.0 mi ESE 9.2 mph - N/A Rain Light Rain
7:35 AM 36.5 °F 32.7 °F 33.3 °F 88% 30.10 in 7.0 mi East 4.6 mph - N/A Rain Light Rain
7:55 AM 36.1 °F 32.3 °F 33.8 °F 91% 30.11 in 3.0 mi ENE 4.6 mph - N/A Rain Rain
8:15 AM 36.0 °F 28.0 °F 34.2 °F 93% 30.10 in 2.5 mi ESE 11.5 mph - N/A   Overcast
8:35 AM 35.8 °F 27.8 °F 33.8 °F 92% 30.08 in 5.0 mi ESE 11.5 mph 17.3 mph N/A Rain Light Rain
8:55 AM 36.1 °F 27.7 °F 34.0 °F 92% 30.07 in 5.0 mi ESE 12.7 mph 19.6 mph N/A Rain Light Rain
9:15 AM 36.1 °F 29.3 °F 34.2 °F 93% 30.08 in 5.0 mi SE 9.2 mph 16.1 mph N/A Rain Light Rain
9:35 AM 36.5 °F 29.7 °F 34.7 °F 93% 30.08 in 5.0 mi ESE 9.2 mph - N/A Rain Light Rain
9:55 AM 36.5 °F 31.8 °F 34.9 °F 94% 30.08 in 5.0 mi ESE 5.8 mph - N/A Rain Light Rain
10:15 AM 36.7 °F 31.2 °F 35.2 °F 95% 30.09 in 5.0 mi ESE 6.9 mph - N/A Rain Rain
10:35 AM 36.7 °F - 35.4 °F 95% 30.10 in 7.0 mi Calm Calm - N/A Rain Light Rain
10:55 AM 37.0 °F - 35.8 °F 95% 30.10 in 5.0 mi Calm Calm - N/A Rain Rain
11:15 AM 37.2 °F - 36.0 °F 95% 30.10 in 2.5 mi Calm Calm - N/A Rain Rain
11:35 AM 37.0 °F - 36.0 °F 96% 30.08 in 3.0 mi Calm Calm - N/A Rain Light Rain
11:55 AM 37.0 °F - 36.1 °F 97% 30.06 in 1.2 mi Calm Calm - N/A Rain Rain
12:15 PM 37.4 °F 34.9 °F 36.5 °F 97% 30.05 in 1.8 mi NNE 3.5 mph - N/A Rain Heavy Rain
12:35 PM 37.4 °F 34.9 °F 36.5 °F 97% 30.03 in 1.8 mi ENE 3.5 mph - N/A Rain Rain
12:55 PM 37.6 °F 35.1 °F 36.7 °F 97% 30.01 in 1.0 mi ENE 3.5 mph - N/A Rain Light Rain
1:15 PM 37.8 °F 35.3 °F 36.9 °F 97% 30.03 in 2.5 mi North 3.5 mph - N/A Rain Rain
1:35 PM 37.8 °F 34.2 °F 36.9 °F 97% 30.03 in 3.0 mi North 4.6 mph - N/A Rain Light Rain
1:55 PM 37.8 °F - 36.9 °F 97% 30.02 in 3.0 mi Calm Calm - N/A   Heavy Drizzle
2:15 PM 38.1 °F 35.7 °F 37.2 °F 97% 30.00 in 3.0 mi East 3.5 mph - N/A   Drizzle
2:35 PM 38.3 °F 33.2 °F 37.4 °F 97% 30.00 in 5.0 mi ENE 6.9 mph - N/A   Overcast
2:55 PM 38.5 °F 36.1 °F 37.6 °F 97% 30.00 in 7.0 mi East 3.5 mph - N/A   Overcast
3:15 PM 38.7 °F 35.2 °F 37.8 °F 97% 29.99 in 7.0 mi East 4.6 mph - N/A   Overcast
3:35 PM 38.8 °F 35.4 °F 37.8 °F 96% 29.99 in 10.0 mi East 4.6 mph - N/A   Overcast
3:55 PM 39.2 °F 35.9 °F 37.9 °F 95% 29.99 in 10.0 mi ENE 4.6 mph - N/A   Overcast
4:15 PM 39.2 °F 35.9 °F 38.3 °F 97% 29.99 in 10.0 mi ESE 4.6 mph - N/A   Overcast
4:35 PM 39.2 °F 35.9 °F 38.3 °F 97% 29.99 in 10.0 mi East 4.6 mph - N/A   Overcast
4:55 PM 39.6 °F - 38.5 °F 96% 29.99 in 7.0 mi Calm Calm - N/A   Overcast
5:15 PM 39.6 °F 36.3 °F 38.5 °F 96% 29.99 in 10.0 mi ENE 4.6 mph - N/A   Overcast
5:35 PM 39.6 °F - 38.3 °F 95% 30.00 in 10.0 mi Calm Calm - N/A   Overcast
5:55 PM 39.6 °F - 38.3 °F 95% 30.01 in 10.0 mi Calm Calm - N/A   Overcast
6:15 PM 39.6 °F - 38.3 °F 95% 30.01 in 10.0 mi Calm Calm - N/A   Overcast
6:35 PM 39.7 °F - 38.7 °F 96% 30.01 in 7.0 mi Calm Calm - N/A   Overcast
7:15 PM 39.7 °F - 38.7 °F 96% 30.02 in 7.0 mi Calm Calm - N/A   Overcast
7:35 PM 39.6 °F - 38.5 °F 96% 30.02 in 7.0 mi Calm Calm - N/A   Overcast
7:55 PM 39.6 °F - 38.7 °F 97% 30.02 in 7.0 mi Calm Calm - N/A   Overcast
8:15 PM 39.4 °F - 38.5 °F 97% 30.03 in 5.0 mi Calm Calm - N/A   Overcast
8:35 PM 38.8 °F - 37.9 °F 97% 30.03 in 4.0 mi Calm Calm - N/A   Mostly Cloudy
8:55 PM 38.3 °F - 37.4 °F 97% 30.03 in 0.2 mi Calm Calm - N/A Fog Fog
9:15 PM 37.4 °F 34.9 °F 36.5 °F 97% 30.04 in 0.2 mi NNW 3.5 mph - N/A Fog Fog
9:35 PM 35.4 °F 31.5 °F 34.7 °F 97% 30.04 in 0.5 mi NW 4.6 mph - N/A Fog Fog
9:55 PM 37.4 °F - 36.7 °F 97% 30.05 in 0.5 mi Calm Calm - N/A Fog Fog
10:15 PM 38.5 °F 36.1 °F 37.8 °F 97% 30.05 in 3.0 mi NNW 3.5 mph - N/A   Overcast
10:35 PM 38.3 °F - 37.4 °F 97% 30.06 in 3.0 mi Calm Calm - N/A   Mostly Cloudy
10:55 PM 36.7 °F 34.1 °F 36.3 °F 99% 30.05 in 0.5 mi NNW 3.5 mph - N/A Fog Fog
11:15 PM 37.6 °F 35.1 °F 37.0 °F 98% 30.04 in 1.0 mi NNW 3.5 mph - N/A   Overcast
11:35 PM 36.7 °F 34.1 °F 36.1 °F 98% 30.03 in 0.5 mi NNW 3.5 mph - N/A Fog Fog
11:55 PM 36.7 °F 34.1 °F 36.1 °F 98% 30.03 in 0.2 mi NNW 3.5 mph - N/A Fog Fog